FW7304 Weather Reports


time (UTC)temp
C
wind
direction
speed
KPH
gust
KPH
rain 1hr
cm
rain 24hr
cm
rain mn
cm
humidity
%
barometer
mb
20260506150403 12 88 4.8 4.8 0.00 0.00 0.00 39 1018.3
20260506145904 12 96 8.0 9.7 0.00 0.00 0.00 40 1018.2
20260506145402 11 46 4.8 8.0 0.00 0.00 0.00 41 1018.2
20260506144903 11 64 4.8 4.8 0.00 0.00 0.00 42 1018.2
20260506144403 11 23 4.8 4.8 0.00 0.00 0.00 43 1018.2
20260506143904 11 288 4.8 4.8 0.00 0.00 0.00 43 1018.2
20260506143403 10 322 3.2 4.8 0.00 0.00 0.00 44 1018.2
20260506142903 10 324 4.8 4.8 0.00 0.00 0.00 44 1018.2
20260506142404 10 18 4.8 4.8 0.00 0.00 0.00 46 1018.2
20260506141903 10 46 8.0 8.0 0.00 0.00 0.00 47 1018.2
20260506141403 10 28 4.8 4.8 0.00 0.00 0.00 47 1018.2
20260506140903 9 22 6.4 8.0 0.00 0.00 0.00 47 1018.1
20260506140403 9 217 1.6 1.6 0.00 0.00 0.00 49 1018.1
20260506135903 8 243 3.2 4.8 0.00 0.00 0.00 50 1018.0
20260506135404 8 202 3.2 3.2 0.00 0.00 0.00 51 1017.9
20260506134903 8 206 1.6 1.6 0.00 0.00 0.00 51 1017.9
20260506134402 7 266 3.2 3.2 0.00 0.00 0.00 53 1018.0
20260506133403 6 209 1.6 1.6 0.00 0.00 0.00 56 1017.8
20260506132903 6 206 1.6 1.6 0.00 0.00 0.00 58 1017.6
20260506132403 5 146 1.6 1.6 0.00 0.00 0.00 58 1017.5
20260506131902 4 249 0.0 1.6 0.00 0.00 0.00 61 1017.4
20260506131403 3 292 3.2 3.2 0.00 0.00 0.00 63 1017.2
20260506130903 3 154 1.6 4.8 0.00 0.00 0.00 64 1017.1
20260506130403 3 196 3.2 4.8 0.00 0.00 0.00 64 1017.1
20260506125903 2 174 3.2 3.2 0.00 0.00 0.00 65 1017.1
20260506125403 2 165 1.6 4.8 0.00 0.00 0.00 66 1017.1
20260506124903 2 184 3.2 3.2 0.00 0.00 0.00 67 1017.0
20260506124403 2 158 1.6 3.2 0.00 0.00 0.00 67 1017.0
20260506123903 2 117 1.6 3.2 0.00 0.00 0.00 65 1016.9
20260506123403 2 227 1.6 3.2 0.00 0.00 0.00 65 1016.8
20260506122903 2 185 1.6 1.6 0.00 0.00 0.00 65 1016.7
20260506122403 2 109 3.2 4.8 0.00 0.00 0.00 63 1016.6
20260506121903 2 137 3.2 3.2 0.00 0.00 0.00 63 1016.5
20260506121403 3 122 1.6 3.2 0.00 0.00 0.00 63 1016.5
20260506120903 3 95 4.8 4.8 0.00 0.00 0.00 63 1016.4
20260506120403 3 135 3.2 3.2 0.00 0.00 0.00 62 1016.4
20260506115904 3 117 3.2 3.2 0.00 0.00 0.00 61 1016.5
20260506114402 3 130 3.2 4.8 0.00 0.00 0.00 60 1016.6
20260506113904 4 97 3.2 3.2 0.00 0.00 0.00 58 1016.6
20260506113403 5 134 3.2 3.2 0.00 0.00 0.00 58 1016.6
20260506112903 5 115 3.2 3.2 0.00 0.00 0.00 57 1016.5
20260506112403 5 150 1.6 3.2 0.00 0.00 0.00 55 1016.5
20260506111403 5 312 3.2 4.8 0.00 0.00 0.00 58 1016.5
20260506110903 5 329 3.2 4.8 0.00 0.00 0.00 58 1016.5
20260506110403 4 274 4.8 8.0 0.00 0.00 0.00 63 1016.4
20260506105903 3 277 4.8 8.0 0.00 0.00 0.00 62 1016.4
20260506104903 3 272 1.6 3.2 0.00 0.00 0.00 63 1016.4
20260506104402 3 49 3.2 4.8 0.00 0.00 0.00 64 1016.2
20260506103404 2 178 3.2 4.8 0.00 0.00 0.00 63 1016.1
20260506102903 2 84 3.2 4.8 0.00 0.00 0.00 61 1016.0
20260506102404 3 123 4.8 4.8 0.00 0.00 0.00 62 1016.0
20260506101903 3 68 1.6 1.6 0.00 0.00 0.00 61 1016.0
20260506101402 3 97 1.6 3.2 0.00 0.00 0.00 59 1016.0
20260506100903 3 125 3.2 4.8 0.00 0.00 0.00 59 1016.0
20260506100403 4 143 4.8 4.8 0.00 0.00 0.00 58 1015.9
20260506095904 4 48 3.2 4.8 0.00 0.00 0.00 58 1016.0
20260506095404 5 42 3.2 8.0 0.00 0.00 0.00 56 1016.0
20260506094903 5 106 4.8 4.8 0.00 0.00 0.00 55 1016.1
20260506094404 5 125 4.8 4.8 0.00 0.00 0.00 53 1016.1
20260506093903 6 153 4.8 4.8 0.00 0.00 0.00 52 1016.1
20260506092903 7 154 3.2 4.8 0.00 0.00 0.00 49 1016.2
20260506092403 8 147 6.4 9.7 0.00 0.00 0.00 44 1016.1
20260506091904 8 262 8.0 9.7 0.00 0.00 0.00 48 1016.1
20260506091403 8 312 4.8 4.8 0.00 0.00 0.00 48 1016.0
20260506090403 8 266 8.0 9.7 0.00 0.00 0.00 48 1015.9
20260506085904 8 234 3.2 8.0 0.00 0.00 0.00 48 1015.9
20260506085403 8 227 4.8 8.0 0.00 0.00 0.00 48 1015.9
20260506084403 8 255 6.4 11.3 0.00 0.00 0.00 47 1015.9
20260506083903 8 247 8.0 9.7 0.00 0.00 0.00 47 1015.9
20260506083403 8 233 6.4 8.0 0.00 0.00 0.00 47 1015.9
20260506081903 9 240 4.8 4.8 0.00 0.00 0.00 46 1015.9
20260506081404 9 250 3.2 11.3 0.00 0.00 0.00 45 1015.9
20260506080903 9 223 9.7 12.9 0.00 0.00 0.00 45 1015.8
20260506080402 9 225 9.7 12.9 0.00 0.00 0.00 45 1015.9
20260506072403 9 248 3.2 9.7 0.00 0.00 0.00 44 1016.0
20260506071903 9 230 8.0 9.7 0.00 0.00 0.00 44 1015.9
20260506071403 9 210 4.8 8.0 0.00 0.00 0.00 44 1015.9
20260506070903 9 260 4.8 8.0 0.00 0.00 0.00 43 1015.9
20260506070404 9 235 6.4 8.0 0.00 0.00 0.00 43 1015.9
20260506062403 10 237 9.7 11.3 0.00 0.00 0.00 41 1015.6
20260506061403 10 240 4.8 8.0 0.00 0.00 0.00 42 1015.6
20260506060904 10 250 8.0 14.5 0.00 0.00 0.00 41 1015.6
20260506060403 9 225 4.8 4.8 0.00 0.00 0.00 42 1015.6
20260506051404 10 128 3.2 3.2 0.00 0.00 0.00 39 1015.4
20260506050903 10 231 4.8 4.8 0.00 0.00 0.00 39 1015.3
20260506050403 10 229 3.2 4.8 0.00 0.00 0.00 39 1015.3
20260506044903 10 266 4.8 8.0 0.00 0.00 0.00 38 1015.2
20260506044404 10 289 8.0 8.0 0.00 0.00 0.00 38 1015.2
20260506043903 11 289 4.8 9.7 0.00 0.00 0.00 37 1015.2
20260506043404 11 271 9.7 12.9 0.00 0.00 0.00 36 1015.2
20260506042403 11 267 4.8 9.7 0.00 0.00 0.00 36 1015.0
20260506041904 11 250 9.7 12.9 0.00 0.00 0.00 36 1015.0
20260506041403 11 258 6.4 9.7 0.00 0.00 0.00 36 1015.0
20260506040904 11 255 12.9 12.9 0.00 0.00 0.00 35 1015.0
20260506040403 11 264 11.3 12.9 0.00 0.00 0.00 36 1014.9
20260506035904 11 243 11.3 16.1 0.00 0.00 0.00 36 1014.8
20260506035403 11 245 9.7 19.3 0.00 0.00 0.00 35 1014.8
20260506034903 11 247 8.0 11.3 0.00 0.00 0.00 36 1014.7
20260506034404 11 221 4.8 12.9 0.00 0.00 0.00 36 1014.7
20260506033403 11 245 11.3 11.3 0.00 0.00 0.00 36 1014.4
20260506032404 11 265 14.5 16.1 0.00 0.00 0.00 35 1014.2
20260506031404 11 252 11.3 12.9 0.00 0.00 0.00 34 1014.0
20260506025903 11 230 11.3 16.1 0.00 0.00 0.00 35 1013.8
20260506025403 11 246 9.7 14.5 0.00 0.00 0.00 35 1013.7
20260506024903 11 240 9.7 12.9 0.00 0.00 0.00 35 1013.6
20260506024403 11 239 8.0 9.7 0.00 0.00 0.00 35 1013.6
20260506023903 11 248 9.7 12.9 0.00 0.00 0.00 35 1013.5
20260506023404 11 259 6.4 12.9 0.00 0.00 0.00 35 1013.5
20260506022904 11 252 11.3 16.1 0.00 0.00 0.00 35 1013.3
20260506022404 11 269 9.7 12.9 0.00 0.00 0.00 34 1013.3
20260506021903 11 256 16.1 24.1 0.00 0.00 0.00 33 1013.2
20260506021404 11 256 19.3 20.9 0.00 0.00 0.00 34 1013.1
20260506020903 12 245 11.3 14.5 0.00 0.00 0.00 34 1013.0
20260506015904 12 267 11.3 20.9 0.00 0.00 0.00 34 1012.9
20260506014904 12 260 12.9 14.5 0.00 0.00 0.00 33 1012.8
20260506013903 13 245 11.3 19.3 0.00 0.00 0.00 33 1012.7
20260506013403 13 263 14.5 19.3 0.00 0.00 0.00 33 1012.6
20260506012903 13 252 16.1 19.3 0.00 0.00 0.00 33 1012.5
20260506012404 13 234 14.5 22.5 0.00 0.00 0.00 32 1012.5
20260506011904 13 239 17.7 19.3 0.00 0.00 0.00 32 1012.4
20260506010903 13 237 16.1 16.1 0.00 0.00 0.00 31 1012.4
20260506010403 13 234 11.3 22.5 0.00 0.00 0.00 32 1012.3
20260506005903 13 246 14.5 20.9 0.00 0.00 0.00 31 1012.3
20260506005404 13 231 14.5 24.1 0.00 0.00 0.00 32 1012.3
20260506004404 14 262 12.9 24.1 0.00 0.00 0.00 32 1012.1
20260506003903 14 243 12.9 16.1 0.00 0.00 0.00 32 1012.1
20260506003403 13 209 19.3 19.3 0.00 0.00 0.00 32 1012.1
20260506002903 13 227 17.7 24.1 0.00 0.00 0.00 33 1012.1
20260506002405 15 256 12.9 29.0 0.00 0.00 0.00 32 1012.1
20260506001903 14 262 11.3 24.1 0.00 0.00 0.00 32 1012.0
20260506001404 13 236 8.0 20.9 0.00 0.00 0.00 33 1011.9
20260506000903 13 236 20.9 25.7 0.00 0.00 0.00 33 1011.9
20260505235903 13 213 16.1 24.1 0.00 0.00 0.00 34 1011.8
20260505234903 15 257 25.7 33.8 0.00 0.00 0.00 31 1011.5
20260505234405 15 220 19.3 22.5 0.00 0.00 0.00 28 1011.4
20260505233904 16 232 19.3 32.2 0.00 0.00 0.00 27 1011.4
20260505233403 15 260 20.9 29.0 0.00 0.00 0.00 27 1011.2
20260505232904 15 226 14.5 25.7 0.00 0.00 0.00 27 1011.3
20260505232405 16 216 17.7 25.7 0.00 0.00 0.00 26 1011.3
20260505231904 16 244 16.1 24.1 0.00 0.00 0.00 26 1011.2
20260505231403 15 247 19.3 27.4 0.00 0.00 0.00 27 1011.2
20260505230903 15 202 24.1 25.7 0.00 0.00 0.00 27 1011.3
20260505230404 15 262 16.1 19.3 0.00 0.00 0.00 28 1011.2
20260505225903 15 229 22.5 27.4 0.00 0.00 0.00 27 1011.3
20260505225403 15 206 19.3 27.4 0.00 0.00 0.00 28 1011.4
20260505224904 14 222 27.4 38.6 0.00 0.00 0.00 28 1011.4
20260505224403 15 220 29.0 35.4 0.00 0.00 0.00 27 1011.3
20260505223903 15 217 22.5 29.0 0.00 0.00 0.00 27 1011.4
20260505223404 15 224 29.0 32.2 0.00 0.00 0.00 26 1011.4
20260505222904 14 222 25.7 27.4 0.00 0.00 0.00 29 1011.5
20260505222403 15 208 16.1 33.8 0.00 0.00 0.00 28 1011.5
20260505221904 14 228 14.5 33.8 0.00 0.00 0.00 29 1011.7
20260505221404 15 213 22.5 27.4 0.00 0.00 0.00 28 1011.7
20260505220903 16 245 20.9 25.7 0.00 0.00 0.00 25 1011.8
20260505220404 16 256 14.5 20.9 0.00 0.00 0.00 25 1011.9
20260505215904 15 246 11.3 22.5 0.00 0.00 0.00 26 1011.9
20260505214403 15 229 14.5 16.1 0.00 0.00 0.00 26 1012.0
20260505213903 15 166 24.1 29.0 0.00 0.00 0.00 26 1011.9
20260505213404 16 213 24.1 27.4 0.00 0.00 0.00 27 1012.0
20260505212404 16 242 22.5 46.7 0.00 0.00 0.00 29 1012.1
20260505210904 15 227 16.1 20.9 0.00 0.00 0.00 32 1012.3
20260505210405 15 223 29.0 37.0 0.00 0.00 0.00 32 1012.4
20260505205904 15 231 20.9 25.7 0.00 0.00 0.00 33 1012.4
20260505205404 16 225 16.1 24.1 0.00 0.00 0.00 32 1012.4
20260505204903 16 236 14.5 20.9 0.00 0.00 0.00 32 1012.4
20260505204403 16 235 14.5 20.9 0.00 0.00 0.00 34 1012.3
20260505203903 16 259 19.3 33.8 0.00 0.00 0.00 33 1012.5
20260505203403 16 229 24.1 27.4 0.00 0.00 0.00 31 1012.5
20260505202903 16 236 19.3 20.9 0.00 0.00 0.00 30 1012.5
20260505202403 16 256 16.1 20.9 0.00 0.00 0.00 31 1012.5
20260505201904 15 243 20.9 24.1 0.00 0.00 0.00 32 1012.6
20260505201403 15 238 17.7 24.1 0.00 0.00 0.00 33 1012.6
20260505200904 15 244 14.5 24.1 0.00 0.00 0.00 34 1012.7
20260505200403 15 220 19.3 22.5 0.00 0.00 0.00 35 1012.8
20260505195403 15 258 19.3 24.1 0.00 0.00 0.00 33 1012.7
20260505194903 14 248 19.3 20.9 0.00 0.00 0.00 35 1012.7
20260505194403 15 249 14.5 24.1 0.00 0.00 0.00 35 1012.8
20260505193904 13 216 11.3 24.1 0.00 0.00 0.00 36 1012.9
20260505193403 14 232 20.9 24.1 0.00 0.00 0.00 33 1012.9
20260505191904 13 232 22.5 24.1 0.00 0.00 0.00 36 1013.1
20260505190904 15 196 11.3 24.1 0.00 0.00 0.00 35 1013.0
20260505190403 14 243 17.7 27.4 0.00 0.00 0.00 37 1013.0
20260505185904 14 196 14.5 27.4 0.00 0.00 0.00 38 1012.8
20260505185403 14 158 9.7 24.1 0.00 0.00 0.00 38 1012.9
20260505184904 13 193 14.5 24.1 0.00 0.00 0.00 40 1013.0
20260505184404 13 173 16.1 20.9 0.00 0.00 0.00 43 1013.1
20260505183904 13 252 16.1 20.9 0.00 0.00 0.00 42 1013.1
20260505183403 12 212 14.5 20.9 0.00 0.00 0.00 44 1013.2
20260505182904 13 222 11.3 19.3 0.00 0.00 0.00 42 1013.2
20260505182404 13 254 11.3 16.1 0.00 0.00 0.00 44 1013.3
20260505181904 12 262 14.5 24.1 0.00 0.00 0.00 44 1013.3
20260505181404 13 232 16.1 24.1 0.00 0.00 0.00 43 1013.1
20260505180904 14 227 19.3 25.7 0.00 0.00 0.00 40 1013.0
20260505180403 14 251 9.7 29.0 0.00 0.00 0.00 40 1013.0
20260505175904 13 251 11.3 29.0 0.00 0.00 0.00 43 1013.0
20260505175404 13 230 11.3 16.1 0.00 0.00 0.00 41 1013.0
20260505174903 13 240 16.1 22.5 0.00 0.00 0.00 39 1013.0
20260505174404 13 249 12.9 22.5 0.00 0.00 0.00 42 1012.9
20260505173404 13 228 19.3 22.5 0.00 0.00 0.00 41 1012.8
20260505172904 14 223 16.1 24.1 0.00 0.00 0.00 38 1012.7
20260505172404 15 229 12.9 16.1 0.00 0.00 0.00 37 1012.6
20260505171904 15 238 12.9 19.3 0.00 0.00 0.00 37 1012.6
20260505171405 15 258 17.7 20.9 0.00 0.00 0.00 39 1012.6
20260505170904 14 244 19.3 19.3 0.00 0.00 0.00 38 1012.7
20260505170404 14 194 11.3 12.9 0.00 0.00 0.00 38 1012.8
20260505165904 13 193 14.5 14.5 0.00 0.00 0.00 40 1012.8
20260505165403 14 203 19.3 20.9 0.00 0.00 0.00 35 1012.8
20260505164904 13 183 12.9 16.1 0.00 0.00 0.00 38 1012.7
20260505164403 13 171 16.1 20.9 0.00 0.00 0.00 38 1012.8
20260505163905 13 161 16.1 19.3 0.00 0.00 0.00 42 1012.9
20260505163404 13 183 11.3 14.5 0.00 0.00 0.00 42 1012.9
20260505162903 13 183 16.1 24.1 0.00 0.00 0.00 41 1012.9
20260505162404 13 171 14.5 24.1 0.00 0.00 0.00 42 1012.8
20260505160404 12 186 12.9 20.9 0.00 0.00 0.00 44 1013.3
20260505152903 10 203 8.0 12.9 0.00 0.00 0.00 50 1013.2
20260505152404 10 137 11.3 14.5 0.00 0.00 0.00 50 1013.2
20260505151905 10 147 12.9 16.1 0.00 0.00 0.00 50 1013.1
20260505151403 10 214 19.3 20.9 0.00 0.00 0.00 50 1013.1